Location: Saint Louis
(38.6272°N, 90.1978°W)
Time: 13:47:10
(UTC-05:00)

ISS - Pass Details

Date: 17 May 2013
Orbit: 400 x 410 km, 51.6° (Epoch: 29 September)

Event Time Altitude Azimuth Distance (km) Brightness Sun altitude
Exits shadow 03:56:35 - 302° (WNW) 2,230 0.3 -18.4°
Maximum altitude 04:00:26 11° 351° (N) 1,534 0.1 -17.8°
Drops below altitude 10° 04:01:43 10° 12° (NNE) 1,612 0.5 -17.7°
Sets 04:05:10 0° 47° (NE) 2,454 2.4 -17.2°
